Terminal Aerodrome Forecast
Issued by NWS Cheyenne, WY

Home | Current Version | Previous Version | Text Only | Print | Product List | Glossary On
Versions: 1 2 3 4 5 6 7 8 9 10 11 12 13 14 15 16 17 18 19 20 21 22 23 24 25 26 27 28 29
000
FTUS45 KCYS 121720
TAFCYS
TAF
KCYS 121720Z 1218/1318 20010KT P6SM BKN090
     FM130000 22008KT P6SM SCT080
     FM130800 28010KT P6SM SCT080
     FM131600 28023G35KT P6SM SCT080=

USA.gov is the U.S. government's official web portal to all federal, state and local government web resources and services.